TimeMST,TemperatureF,Dew PointF,Humidity,Sea Level PressureIn,VisibilityMPH,Wind Direction,Wind SpeedMPH,Gust SpeedMPH,PrecipitationIn,Events,Conditions,WindDirDegrees,DateUTC
12:53 AM,10.9,5.0,77,30.37,10.0,WSW,21.9,26.5,0.00,,Clear,250,2013-01-02 07:53:00
1:53 AM,10.0,5.0,80,30.38,10.0,WSW,16.1,-,0.00,,Partly Cloudy,240,2013-01-02 08:53:00
2:53 AM,10.0,5.0,80,30.37,10.0,West,5.8,-,N/A,,Scattered Clouds,260,2013-01-02 09:53:00
3:53 AM,12.9,7.0,77,30.35,10.0,WSW,10.4,-,N/A,,Overcast,250,2013-01-02 10:53:00
5:53 AM,12.0,6.1,77,30.37,10.0,WSW,11.5,-,N/A,,Overcast,250,2013-01-02 12:53:00
6:53 AM,14.0,7.0,74,30.38,10.0,West,11.5,-,N/A,,Overcast,260,2013-01-02 13:53:00
7:53 AM,12.9,7.0,77,30.39,10.0,WSW,15.0,-,N/A,,Overcast,250,2013-01-02 14:53:00
8:53 AM,10.9,6.1,81,30.39,10.0,WSW,15.0,-,N/A,,Clear,240,2013-01-02 15:53:00
9:53 AM,14.0,7.0,74,30.39,10.0,WSW,17.3,-,N/A,,Clear,250,2013-01-02 16:53:00
10:53 AM,16.0,8.1,71,30.41,10.0,WSW,13.8,-,N/A,,Mostly Cloudy,250,2013-01-02 17:53:00
11:53 AM,15.1,7.0,70,30.39,10.0,WSW,18.4,-,N/A,,Partly Cloudy,250,2013-01-02 18:53:00
12:53 PM,15.1,7.0,70,30.38,10.0,WSW,21.9,26.5,N/A,,Clear,250,2013-01-02 19:53:00
1:53 PM,15.1,8.1,74,30.36,10.0,WSW,20.7,24.2,N/A,,Clear,240,2013-01-02 20:53:00
2:53 PM,15.1,7.0,70,30.38,10.0,WSW,19.6,-,N/A,,Clear,240,2013-01-02 21:53:00
3:53 PM,12.9,6.1,74,30.39,10.0,WSW,19.6,-,N/A,,Clear,250,2013-01-02 22:53:00
4:53 PM,10.0,3.0,73,30.42,10.0,WSW,19.6,-,N/A,,Clear,240,2013-01-02 23:53:00
5:53 PM,10.0,3.0,73,30.43,10.0,WSW,18.4,-,N/A,,Clear,250,2013-01-03 00:53:00
6:53 PM,10.9,3.0,70,30.43,10.0,West,10.4,-,N/A,,Clear,270,2013-01-03 01:53:00
7:53 PM,10.0,1.9,70,30.45,10.0,WSW,10.4,-,N/A,,Clear,240,2013-01-03 02:53:00
8:53 PM,8.1,1.9,76,30.47,10.0,WSW,15.0,-,N/A,,Clear,250,2013-01-03 03:53:00
9:53 PM,8.1,1.0,73,30.48,10.0,SW,13.8,-,N/A,,Clear,230,2013-01-03 04:53:00
10:53 PM,8.1,1.0,73,30.50,10.0,WSW,11.5,-,N/A,,Clear,250,2013-01-03 05:53:00
11:53 PM,5.0,-0.9,76,30.51,10.0,WSW,11.5,-,N/A,,Clear,240,2013-01-03 06:53:00